EPWR

Copernicus Wrocław Airport

Wrocław, Poland
Issued Wind Visibility Ceiling Temperature Dew Point Humidity Barometer
May-1
00:00 UTC
100°
10 KTS
10 km or more   C
41° F
C
36° F
81% 30.06" Hg
1018 hPa
VFR
Apr-30
23:30 UTC
100°
12 KTS
10 km or more   C
43° F
C
36° F
76% 30.06" Hg
1018 hPa
VFR
Apr-30
23:00 UTC
090°
11 KTS
10 km or more   C
43° F
C
36° F
76% 30.09" Hg
1019 hPa
VFR
Apr-30
22:30 UTC
100°
13 KTS
10 km or more   C
43° F
C
36° F
76% 30.09" Hg
1019 hPa
VFR
Apr-30
22:00 UTC
090°
12 KTS
10 km or more   C
43° F
C
36° F
76% 30.09" Hg
1019 hPa
VFR
Apr-30
21:30 UTC
090°
11 KTS
10 km or more   C
43° F
C
36° F
76% 30.09" Hg
1019 hPa
VFR
Apr-30
21:00 UTC
090°
12 KTS
10 km or more   C
45° F
C
36° F
71% 30.09" Hg
1019 hPa
VFR
Apr-30
20:30 UTC
080°
12 KTS
10 km or more   C
45° F
C
36° F
71% 30.09" Hg
1019 hPa
VFR
Apr-30
20:00 UTC
080°
11 KTS
10 km or more   C
45° F
C
36° F
71% 30.09" Hg
1019 hPa
VFR
Apr-30
19:30 UTC
080°
11 KTS
10 km or more   C
46° F
C
36° F
66% 30.09" Hg
1019 hPa
VFR
Apr-30
19:00 UTC
080°
13 KTS
10 km or more   C
48° F
C
36° F
62% 30.09" Hg
1019 hPa
VFR
Apr-30
18:30 UTC
080°
11 KTS
10 km or more   C
48° F
C
36° F
62% 30.09" Hg
1019 hPa
VFR
Apr-30
18:00 UTC
090°
11 KTS
10 km or more   C
48° F
C
34° F
58% 30.09" Hg
1019 hPa
VFR
Apr-30
17:30 UTC
080°
8 KTS
10 km or more   10° C
50° F
C
34° F
54% 30.09" Hg
1019 hPa
VFR
Apr-30
17:00 UTC
090°
10 KTS
10 km or more   11° C
52° F
C
36° F
54% 30.09" Hg
1019 hPa
VFR
Apr-30
16:30 UTC
100°
9 KTS
10 km or more   12° C
54° F
C
34° F
47% 30.09" Hg
1019 hPa
VFR
Apr-30
16:00 UTC
100°
11 KTS
10 km or more   12° C
54° F
C
37° F
54% 30.09" Hg
1019 hPa
VFR
Apr-30
15:30 UTC
080°
6 KTS
10 km or more   12° C
54° F
C
32° F
44% 30.12" Hg
1020 hPa
VFR
Apr-30
15:00 UTC
090°
8 KTS
10 km or more   11° C
52° F
C
34° F
50% 30.12" Hg
1020 hPa
VFR
Apr-30
14:30 UTC
040°
7 KTS
10 km or more   13° C
55° F
C
36° F
47% 30.12" Hg
1020 hPa
VFR
Apr-30
14:00 UTC
060°
9 KTS
10 km or more Broken
4,700' AGL
11° C
52° F
C
34° F
50% 30.12" Hg
1020 hPa
VFR
Apr-30
13:30 UTC
060°
6 KTS
10 km or more Broken
4,400' AGL
12° C
54° F
C
34° F
47% 30.15" Hg
1021 hPa
VFR
Apr-30
13:00 UTC
050°
6 KTS
10 km or more   11° C
52° F
C
36° F
54% 30.15" Hg
1021 hPa
VFR
Apr-30
12:30 UTC
080°
6 KTS
10 km or more   11° C
52° F
C
34° F
50% 30.15" Hg
1021 hPa
VFR
Apr-30
12:00 UTC
Varies @5 KTS 10 km or more   11° C
52° F
C
36° F
54% 30.15" Hg
1021 hPa
VFR
Apr-30
11:30 UTC
040°
6 KTS
10 km or more   11° C
52° F
C
36° F
54% 30.18" Hg
1022 hPa
VFR
Apr-30
11:00 UTC
060°
4 KTS
10 km or more   11° C
52° F
C
36° F
54% 30.18" Hg
1022 hPa
VFR
Apr-30
10:30 UTC
050°
6 KTS
10 km or more   10° C
50° F
C
34° F
54% 30.18" Hg
1022 hPa
VFR
Apr-30
10:00 UTC
020°
6 KTS
10 km or more   10° C
50° F
C
37° F
62% 30.18" Hg
1022 hPa
VFR
Apr-30
09:30 UTC
020°
5 KTS
10 km or more   11° C
52° F
C
37° F
58% 30.18" Hg
1022 hPa
VFR
Apr-30
09:00 UTC
080°
6 KTS
10 km or more   C
48° F
C
34° F
58% 30.18" Hg
1022 hPa
VFR
Apr-30
08:30 UTC
060°
5 KTS
10 km or more Broken
2,600' AGL
C
46° F
C
34° F
62% 30.18" Hg
1022 hPa
MVFR
Apr-30
08:00 UTC
080°
5 KTS
10 km or more   C
48° F
C
37° F
66% 30.18" Hg
1022 hPa
VFR
Apr-30
07:30 UTC
100°
5 KTS
10 km or more   C
46° F
C
36° F
66% 30.18" Hg
1022 hPa
VFR
Apr-30
07:00 UTC
Varies @3 KTS 10 km or more   C
45° F
C
37° F
76% 30.18" Hg
1022 hPa
VFR
Apr-30
06:30 UTC
Varies @2 KTS 10 km or more   C
43° F
C
39° F
87% 30.18" Hg
1022 hPa
VFR
Apr-30
06:00 UTC
Varies @2 KTS 10 km or more   C
39° F
C
37° F
93% 30.18" Hg
1022 hPa
VFR
Apr-30
05:30 UTC
310°
5 KTS
10 km or more   C
37° F
C
36° F
93% 30.18" Hg
1022 hPa
VFR
Apr-30
05:00 UTC
270°
3 KTS
7,998 meters   C
34° F
C
34° F
100% 30.18" Hg
1022 hPa
MVFR
Apr-30
04:30 UTC
Varies @2 KTS 6,003 meters         30.15" Hg
1021 hPa
MVFR
Apr-30
04:00 UTC
290°
2 KTS
6,003 meters   -1° C
30° F
-1° C
30° F
100% 30.15" Hg
1021 hPa
MVFR
Apr-30
03:30 UTC
240°
2 KTS
2,494 meters         30.15" Hg
1021 hPa
IFR
Apr-30
03:00 UTC
320°
4 KTS
1,996 meters   C
34° F
C
32° F
93% 30.15" Hg
1021 hPa
IFR
Apr-30
02:30 UTC
330°
3 KTS
1,207 meters   -1° C
30° F
-1° C
30° F
100% 30.12" Hg
1020 hPa
LIFR
Apr-30
02:00 UTC
310°
4 KTS
595 meters   C
34° F
C
32° F
93% 30.12" Hg
1020 hPa
LIFR
Apr-30
01:30 UTC
300°
4 KTS
402 meters   C
34° F
C
34° F
100% 30.12" Hg
1020 hPa
LIFR
Apr-30
01:00 UTC
300°
2 KTS
7,001 meters   C
36° F
C
34° F
93% 30.12" Hg
1020 hPa
MVFR
Apr-30
00:30 UTC
Varies @1 KTS 7,998 meters   C
37° F
C
36° F
93% 30.12" Hg
1020 hPa
MVFR